{"data":{"norad_id":65087,"epoch":"2026-09-20T13:22:22.219104Z","epoch_age_seconds":115229,"freshness":"FRESH","line1":"1 65087U 25167K   26263.55720161  .00003959  00000+0  13923-3 0  9999","line2":"2 65087  53.1589 201.6100 0001492  92.9438 267.1734 15.31708793 63317","mean_motion":15.31708793,"eccentricity":0.0001492,"inclination_deg":53.1589,"raan_deg":201.61,"arg_perigee_deg":92.9438,"mean_anomaly_deg":267.1734,"bstar":0.00013923,"rev_number":6331,"period_min":94.012648264532,"perigee_km":469.69193533864,"apogee_km":471.73563241255,"semimajor_km":6848.8507838756,"source":"CELESTRAK","updated_at":"2026-09-21T09:00:35.522510Z"}}